FW3145 Weather Reports


Display with metric or nautical units.
time (UTC)temp
F
wind
direction
speed
MPH
gust
MPH
rain 1hr
in
rain 24hr
in
rain mn
in
humidity
%
barometer
mb
20260902131532 92 288 0.0 0.0 0.00 0.00 0.00 46 1014.4
20260902130012 91 227 0.0 0.0 0.00 0.00 0.00 49 1014.5
20260902124511 90 235 0.0 0.0 0.00 0.00 0.00 48 1014.7
20260902123008 91 229 0.0 0.0 0.00 0.00 0.00 42 1014.8
20260902121507 92 254 0.0 0.0 0.00 0.00 0.00 46 1014.8
20260902120004 91 288 0.0 0.0 0.00 0.00 0.00 49 1015.0
20260902114507 91 313 0.0 0.0 0.00 0.00 0.00 51 1015.1
20260902113105 90 232 0.0 0.0 0.00 0.00 0.00 51 1015.2
20260902111605 90 264 0.0 0.0 0.00 0.00 0.00 52 1015.5
20260902110057 89 294 0.0 0.0 0.00 0.00 0.00 52 1015.5
20260902104606 88 248 0.0 0.0 0.00 0.00 0.00 53 1015.7
20260902103050 87 150 0.0 0.0 0.00 0.00 0.00 54 1015.8
20260902101547 87 171 0.0 0.0 0.00 0.00 0.00 59 1015.9
20260902100047 86 161 0.0 0.0 0.00 0.00 0.00 59 1016.1
20260902094543 85 224 0.0 0.0 0.00 0.00 0.00 58 1016.3
20260902093041 85 157 0.0 0.0 0.00 0.00 0.00 57 1016.4
20260902091539 85 178 0.0 0.0 0.00 0.00 0.00 64 1016.4
20260902090037 84 138 0.0 0.0 0.00 0.00 0.00 64 1016.5
20260902084533 84 119 0.0 0.0 0.00 0.00 0.00 64 1016.4
20260902083029 83 169 0.0 0.0 0.00 0.00 0.00 62 1016.4
20260902081525 81 173 0.0 0.0 0.00 0.00 0.00 63 1016.2
20260902080021 80 143 0.0 0.0 0.00 0.00 0.00 65 1016.0
20260902074520 79 143 0.0 0.0 0.00 0.00 0.00 67 1016.0
20260902073017 78 163 0.0 0.0 0.00 0.00 0.00 73 1016.0
20260902071509 77 142 0.0 0.0 0.00 0.00 0.00 73 1016.0
20260902070006 75 157 0.0 0.0 0.00 0.00 0.00 76 1016.0
20260902064600 75 143 0.0 0.0 0.00 0.00 0.00 77 1016.1
20260902063056 74 142 0.0 0.0 0.00 0.00 0.00 78 1016.1
20260902061601 74 91 0.0 0.0 0.00 0.00 0.00 79 1016.0
20260902060056 72 90 0.0 0.0 0.00 0.00 0.00 80 1016.0
20260902054605 70 62 0.0 0.0 0.00 0.00 0.00 80 1016.0
20260902053050 69 63 0.0 0.0 0.00 0.00 0.00 78 1016.0
20260902051537 67 62 0.0 0.0 0.00 0.00 0.00 79 1015.9
20260902050032 67 62 0.0 0.0 0.00 0.00 0.00 80 1015.7
20260902044535 67 62 0.0 0.0 0.00 0.00 0.00 80 1015.6
20260902043027 67 62 0.0 0.0 0.00 0.00 0.00 80 1015.6
20260902041528 67 62 0.0 0.0 0.00 0.00 0.00 80 1015.4
20260902040024 67 62 0.0 0.0 0.00 0.00 0.00 80 1015.3
20260902034523 68 62 0.0 0.0 0.00 0.00 0.00 80 1015.2
20260902033022 68 63 0.0 0.0 0.00 0.00 0.00 80 1015.1
20260902031521 68 63 0.0 0.0 0.00 0.00 0.00 80 1015.2
20260902030019 68 63 0.0 0.0 0.00 0.00 0.00 80 1015.3
20260902024517 68 63 0.0 0.0 0.00 0.00 0.00 80 1015.3
20260902023016 69 63 0.0 0.0 0.00 0.00 0.00 80 1015.3
20260902021514 69 87 0.0 0.0 0.00 0.00 0.00 80 1015.4
20260902020013 70 87 0.0 0.0 0.00 0.00 0.00 80 1015.2
20260902014511 70 88 0.0 0.0 0.00 0.00 0.00 80 1015.1
20260902013010 70 88 0.0 0.0 0.00 0.00 0.00 79 1015.2
20260902011515 71 87 0.0 0.0 0.00 0.00 0.00 79 1015.0
20260902010014 71 87 0.0 0.0 0.00 0.00 0.00 79 1015.4
20260902004507 71 88 0.0 0.0 0.00 0.00 0.00 79 1015.4
20260902003004 71 88 0.0 0.0 0.00 0.00 0.00 78 1015.6
20260902001502 72 88 0.0 0.0 0.00 0.00 0.00 77 1015.6
20260902000104 72 88 0.0 0.0 0.00 0.00 0.00 76 1015.5
20260901234556 74 88 0.0 0.0 0.00 0.00 0.00 73 1015.4
20260901233056 75 89 0.0 0.0 0.00 0.00 0.00 70 1015.5
20260901231558 75 24 0.0 0.0 0.00 0.00 0.00 72 1015.3
20260901230051 74 36 0.0 0.0 0.00 0.00 0.00 73 1015.3
20260901224550 75 31 0.0 0.0 0.00 0.00 0.00 71 1015.3
20260901223050 75 38 0.0 0.0 0.00 0.00 0.00 70 1015.1
20260901221557 73 44 0.0 0.0 0.00 0.00 0.00 72 1015.0
20260901220052 74 26 0.0 0.0 0.00 0.00 0.00 71 1015.1
20260901214541 74 27 0.0 0.0 0.00 0.00 0.00 70 1014.9
20260901213041 74 5 0.0 0.0 0.00 0.00 0.00 70 1014.9
20260901211541 74 13 0.0 0.0 0.00 0.00 0.00 70 1014.9
20260901210043 74 22 0.0 0.0 0.00 0.00 0.00 71 1014.9
20260901204539 74 360 0.0 0.0 0.00 0.00 0.00 70 1014.9
20260901203039 74 360 0.0 0.0 0.00 0.00 0.00 69 1014.8
20260901201538 75 28 0.0 0.0 0.00 0.00 0.00 70 1014.9
20260901200040 75 355 0.0 0.0 0.00 0.00 0.00 70 1014.8
20260901194536 75 33 0.0 0.0 0.00 0.00 0.00 70 1014.8
20260901193036 75 45 0.0 0.0 0.00 0.00 0.00 70 1014.7
20260901191552 76 327 0.0 0.0 0.00 0.00 0.00 70 1014.5
20260901190035 76 327 0.0 0.0 0.00 0.00 0.00 68 1014.4
20260901184541 77 327 0.0 0.0 0.00 0.00 0.00 66 1014.3
20260901183045 78 327 0.0 0.0 0.00 0.00 0.00 64 1014.0
20260901181532 79 11 0.0 0.0 0.00 0.00 0.00 64 1014.0
20260901180032 80 5 0.0 0.0 0.00 0.00 0.00 64 1013.9
20260901174531 81 340 0.0 0.0 0.00 0.00 0.00 62 1013.7
20260901173031 83 9 0.0 0.0 0.00 0.00 0.00 61 1013.7
20260901171531 85 350 0.0 0.0 0.00 0.00 0.00 57 1013.5
20260901170030 87 268 0.0 0.0 0.00 0.00 0.00 54 1013.6
20260901164540 88 265 0.0 0.0 0.00 0.00 0.00 51 1013.6
20260901163029 89 291 0.0 0.0 0.00 0.00 0.00 50 1013.6
20260901161547 89 263 0.0 0.0 0.00 0.00 0.00 48 1013.5
20260901160028 90 267 0.0 0.0 0.00 0.00 0.00 46 1013.5
20260901154526 91 273 0.0 0.0 0.00 0.00 0.00 45 1013.5
20260901153026 92 263 0.0 0.0 0.00 0.00 0.00 43 1013.4
20260901151526 92 242 0.0 0.0 0.00 0.00 0.00 45 1013.3
20260901150035 92 218 0.0 0.0 0.00 0.00 0.00 48 1013.3
20260901144535 92 259 0.0 0.0 0.00 0.00 0.00 49 1013.3
20260901143023 93 252 0.0 0.0 0.00 0.00 0.00 48 1013.4
20260901141522 93 292 0.0 0.0 0.00 0.00 0.00 52 1013.4
20260901140021 94 214 0.0 0.0 0.00 0.00 0.00 48 1013.4
20260901134525 93 264 0.0 0.0 0.00 0.00 0.00 47 1013.3
20260901133020 94 196 0.0 0.0 0.00 0.00 0.00 44 1013.5